Meath Environmental Platform

Observations

Time Sensor AQI SAQ Temp °C Hum % Pres Pa CO μg/m³ H₂S μg/m³ NO μg/m³ NO₂ μg/m³ O₃ μg/m³ SO₂ μg/m³ CO₂e PPM VOC PPM PM1 μg/m³ PM2.5 μg/m³ PM4 μg/m³ PM10 μg/m³ TPS µm
Tuesday 11 August 2026
11:11 Trim Patrick St 1 31.8 32 69,328 0 0 0.68 7.21 48.66 12.24 2 7.54 8.3
11:10 Trim Patrick St 1 31.7 34 69,308 0 0 0.68 3.36 38.07 12.78 2.86 8.99 9.89
11:09 Trim Patrick St 1 31.6 33 69,312 0 0 0.71 10.37 84.16 15.04 2.86 9.1 10.01
11:08 Trim Patrick St 1 31.6 33 69,286 0 0 0.71 13.31 69.19 15.35 2 7.51 8.26
11:07 Trim Patrick St 1 31.5 34 69,282 0 0 0.71 9.84 102 14.41 2.86 8.19 9.01
11:06 Trim Patrick St 1 31.5 34 69,282 0 0 0.71 8.87 69.84 13.61 2.86 8.25 9.08
11:05 Trim Patrick St 1 31.5 35 69,282 0 0 0.7 8.34 67.06 13.11 2 7.37 8.11
11:04 Trim Market St 1 37.5 24 66,788 0 0 0.12 12.75 75.89 0 0 3.01 3.31
11:04 Trim Patrick St 1 31.4 37 69,286 0 0 0.7 7.03 56.77 13.16 2 7.22 7.94
11:03 Trim Patrick St 1 31.4 37 69,286 0 0 0.7 8.24 56.42 14.68 2 7.21 7.94
11:02 Trim Patrick St 1 31.4 34 69,250 0 0 0.72 7.93 70.4 13.55 2 7.39 8.13
11:01 Trim Market St 1 37.6 24 66,744 0 0 0.07 12.41 74.1 0 0 3 3.29
11:01 Trim Patrick St 1 31.4 36 69,236 0 0 0.71 9.41 107.55 15.33 2 7.3 8.03
11:00 Trim Patrick St 1 31.4 34 69,248 0 0 0.72 5.67 50.38 13.3 2 8.2 9.02
10:59 Trim Patrick St 1 31.3 34 69,269 0 0 0.74 5.73 45.41 12.96 2.86 8.25 9.08
10:58 Trim Market St 1 37.5 26 66,743 0 0 0.05 13.24 73.87 0 0 3.49 3.84
10:58 Trim Patrick St 1 31.3 36 69,264 0 0 0.73 9.54 75.02 12 2.86 8.12 8.93
10:57 Trim Market St 1 37.3 26 66,743 0 0 0.07 13.33 79.21 0 0 2.92 3.21
10:57 Trim Patrick St 1 31.3 39 69,258 0 0 0.7 1.64 36.44 13.65 2 7.89 8.68
10:56 Trim Market St 1 37.2 26 66,712 0 0 0.08 13.82 69.42 0 0.71 4.01 4.41